Monarch Pass, CO

4:26 PM MDT on June 23, 2017 (GMT -0600)
Monarch Pass

Weather History for KMYP - September, 2013

Change the Weather History Date:

Sunday, September 8, 2013

  Actual Average (KALS) Record (KALS)
Temperature  
Mean Temperature 52 °F -  
Max Temperature 59 °F 76 °F 87 °F (1977)
Min Temperature 44 °F 39 °F 29 °F (2001)
Degree Days  
Heating Degree Days 14    
Growing Degree Days 2 (Base 50)    
Moisture  
Dew Point 36 °F    
Average Humidity 61    
Maximum Humidity 76    
Minimum Humidity 45    
Precipitation  
Precipitation 0.00 in - - ()
Sea Level Pressure  
Sea Level Pressure 30.71 in    
Wind  
Wind Speed 13 mph (SW)    
Max Wind Speed 20 mph    
Max Gust Speed 24 mph    
Visibility 10 miles    
Events      
Averages and records for this station are not official NWS values.
T = Trace of Precipitation, MM = Missing Value Source: NWS Daily Summary

Daily Weather History Graph

Daily Weather History Graph

Search for Another Location

Airport or City:

Trip Planner

Search our weather history database for the weather conditions in past years. The results will help you decide how hot, cold, wet, or windy it might be!

Date:

Astronomy

Sep. 08, 2013 Rise Set
Actual Time 6:40 AM MDT 7:23 PM MDT
Civil Twilight 6:13 AM MDT 7:49 PM MDT
Nautical Twilight 5:42 AM MDT 8:21 PM MDT
Astronomical Twilight 5:09 AM MDT 8:53 PM MDT
Moon 9:57 AM MDT (9/8) 9:04 PM MDT (9/8)
Length of Visible Light 13h 36m
Length of Day
12h 42m
Waxing Crescent, 11% of the Moon is Illuminated
Sep 8
Waxing Crescent
Sep 12
First Quarter
Sep 19
Full
Sep 26
Last Quarter
Oct 4
New

Hourly Weather History & Observations

Time (MDT) Temp. Windchill Dew Point Humidity Pressure Visibility Wind Dir Wind Speed Gust Speed Precip Events Conditions
12:09 AM 51.8 °F - 35.6 °F 54% 30.75 in 10.0 mi SSW 13.8 mph - N/A   Overcast
12:29 AM 51.8 °F - 35.6 °F 54% 30.75 in 10.0 mi South 10.4 mph - N/A   Overcast
12:49 AM 51.8 °F - 33.8 °F 50% 30.75 in 10.0 mi East 10.4 mph - N/A   Overcast
1:09 AM 50.0 °F - 35.6 °F 58% 30.75 in 10.0 mi East 5.8 mph - N/A   Overcast
1:29 AM 50.0 °F - 35.6 °F 58% 30.74 in 10.0 mi ESE 3.5 mph - N/A   Overcast
1:49 AM 50.0 °F - 35.6 °F 58% 30.74 in 10.0 mi South 8.1 mph - N/A   Overcast
2:09 AM 50.0 °F - 35.6 °F 58% 30.73 in 10.0 mi SSW 13.8 mph - N/A   Overcast
2:29 AM 50.0 °F - 35.6 °F 58% 30.73 in 10.0 mi South 12.7 mph - N/A   Mostly Cloudy
2:49 AM 50.0 °F - 35.6 °F 58% 30.72 in 10.0 mi SSW 17.3 mph - N/A   Mostly Cloudy
3:09 AM 50.0 °F - 35.6 °F 58% 30.72 in 10.0 mi SSW 16.1 mph - N/A   Scattered Clouds
3:29 AM 50.0 °F - 35.6 °F 58% 30.71 in 10.0 mi SSW 15.0 mph - N/A   Mostly Cloudy
3:49 AM 48.2 °F - 35.6 °F 62% 30.71 in 10.0 mi SW 17.3 mph - N/A   Mostly Cloudy
4:09 AM 46.4 °F 40.1 °F 35.6 °F 66% 30.71 in 10.0 mi SW 15.0 mph - N/A   Scattered Clouds
4:29 AM 46.4 °F 40.1 °F 35.6 °F 66% 30.71 in 10.0 mi SW 15.0 mph - N/A   Clear
4:49 AM 46.4 °F 39.8 °F 35.6 °F 66% 30.71 in 10.0 mi SW 16.1 mph - N/A   Clear
5:09 AM 44.6 °F 37.2 °F 35.6 °F 71% 30.70 in 10.0 mi SW 17.3 mph - N/A   Clear
5:29 AM 44.6 °F 36.6 °F 37.4 °F 76% 30.70 in 10.0 mi SW 19.6 mph - N/A   Clear
5:49 AM 44.6 °F 37.8 °F 37.4 °F 76% 30.70 in 10.0 mi WSW 15.0 mph - N/A   Clear
6:09 AM 44.6 °F 37.4 °F 37.4 °F 76% 30.71 in 10.0 mi WSW 16.1 mph - N/A   Clear
6:29 AM 44.6 °F 38.1 °F 35.6 °F 71% 30.70 in 10.0 mi West 13.8 mph - N/A   Clear
6:49 AM 44.6 °F 38.1 °F 35.6 °F 71% 30.71 in 10.0 mi West 13.8 mph - N/A   Clear
7:09 AM 46.4 °F 41.1 °F 35.6 °F 66% 30.70 in 10.0 mi West 11.5 mph - N/A   Clear
7:29 AM 46.4 °F 40.4 °F 35.6 °F 66% 30.70 in 10.0 mi West 13.8 mph - N/A   Clear
7:49 AM 46.4 °F 41.1 °F 35.6 °F 66% 30.70 in 10.0 mi West 11.5 mph - N/A   Clear
8:09 AM 46.4 °F 41.1 °F 35.6 °F 66% 30.70 in 10.0 mi West 11.5 mph - N/A   Clear
8:29 AM 46.4 °F 41.9 °F 35.6 °F 66% 30.70 in 10.0 mi West 9.2 mph - N/A   Clear
8:49 AM 48.2 °F - 37.4 °F 66% 30.71 in 10.0 mi West 9.2 mph - N/A   Clear
9:09 AM 50.0 °F - 37.4 °F 62% 30.70 in 10.0 mi SW 13.8 mph 19.6 mph N/A   Clear
9:29 AM 53.6 °F - 37.4 °F 54% 30.70 in 10.0 mi SW 17.3 mph - N/A   Clear
9:49 AM 53.6 °F - 37.4 °F 54% 30.71 in 10.0 mi WSW 16.1 mph 24.2 mph N/A   Clear
10:09 AM 51.8 °F - 37.4 °F 58% 30.71 in 10.0 mi West 19.6 mph - N/A   Clear
10:29 AM 53.6 °F - 37.4 °F 54% 30.70 in 10.0 mi West 12.7 mph - N/A   Clear
10:49 AM 53.6 °F - 37.4 °F 54% 30.70 in 10.0 mi West 13.8 mph 19.6 mph N/A   Clear
11:09 AM 55.4 °F - 37.4 °F 51% 30.70 in 10.0 mi West 10.4 mph - N/A   Clear
11:29 AM 53.6 °F - 37.4 °F 54% 30.69 in 10.0 mi WSW 12.7 mph - N/A   Scattered Clouds
11:49 AM 55.4 °F - 37.4 °F 51% 30.69 in 10.0 mi WSW 13.8 mph - N/A   Scattered Clouds
12:09 PM 59.0 °F - 39.2 °F 48% 30.68 in 10.0 mi WSW 13.8 mph 23.0 mph N/A   Scattered Clouds
12:12 PM 59.0 °F - 37.4 °F 45% 30.68 in 10.0 mi WSW 18.4 mph 21.9 mph N/A   Scattered Clouds